DW2458 Weather Reports


time (UTC)temp
C
wind
direction
speed
KPH
gust
KPH
rain 1hr
cm
rain 24hr
cm
rain mn
cm
humidity
%
barometer
mb
20260507014547 20 360 11.3 20.9 0.00 0.00 0.00 68 1015.8
20260507013045 20 360 9.7 25.7 0.00 0.00 0.00 65 1015.8
20260507011537 20 360 9.7 22.5 0.00 0.00 0.00 62 1015.7
20260507010038 21 360 14.5 24.1 0.00 0.00 0.00 61 1015.7
20260507004541 21 9 14.5 22.5 0.00 0.00 0.00 60 1015.7
20260507003037 21 22 14.5 24.1 0.00 0.00 0.00 58 1015.6
20260507001535 22 360 14.5 22.5 0.00 0.00 0.00 57 1015.5
20260507000035 22 38 11.3 22.5 0.00 0.00 0.00 58 1015.4
20260506234537 23 23 9.7 20.9 0.00 0.00 0.00 57 1015.5
20260506233033 23 333 9.7 19.3 0.00 0.00 0.00 55 1015.6
20260506231544 23 14 12.9 22.5 0.00 0.00 0.00 54 1015.7
20260506230035 23 9 11.3 19.3 0.00 0.00 0.00 53 1016.0
20260506224529 24 101 8.0 22.5 0.00 0.00 0.00 55 1016.0
20260506223042 24 99 11.3 19.3 0.00 0.00 0.00 51 1016.1
20260506221524 25 77 9.7 24.1 0.00 0.00 0.00 50 1016.3
20260506220025 25 13 8.0 19.3 0.00 0.00 0.00 51 1016.4
20260506214520 25 36 4.8 12.9 0.00 0.00 0.00 55 1016.5
20260506213017 24 336 6.4 17.7 0.00 0.00 0.00 51 1016.8
20260506211517 24 14 4.8 14.5 0.00 0.00 0.00 49 1017.0
20260506210016 23 43 8.0 17.7 0.00 0.00 0.00 56 1017.1
20260506204513 23 36 8.0 19.3 0.00 0.00 0.00 55 1017.2
20260506203021 22 87 6.4 16.1 0.00 0.00 0.00 56 1017.3
20260506201525 23 24 11.3 19.3 0.00 0.00 0.00 54 1017.5
20260506200009 22 298 1.6 14.5 0.00 0.00 0.00 59 1017.7
20260506194506 22 309 0.0 12.9 0.00 0.00 0.00 56 1017.9
20260506193004 22 331 6.4 14.5 0.00 0.00 0.00 60 1017.9
20260506191501 22 347 3.2 12.9 0.00 0.00 0.00 63 1018.3
20260506190100 21 333 1.6 8.0 0.00 0.00 0.00 59 1018.3
20260506184608 21 315 4.8 14.5 0.00 0.00 0.00 61 1018.4
20260506183102 20 57 8.0 16.1 0.00 0.00 0.00 63 1018.5
20260506181553 20 51 4.8 17.7 0.00 0.00 0.00 64 1018.5
20260506180053 20 225 3.2 9.7 0.00 0.00 0.00 67 1018.5
20260506174548 17 10 4.8 9.7 0.00 0.00 0.00 71 1018.4
20260506173051 18 246 3.2 11.3 0.00 0.00 0.00 69 1018.6
20260506171544 17 11 0.0 14.5 0.00 0.00 0.00 73 1018.6
20260506170101 17 336 6.4 11.3 0.00 0.00 0.00 71 1018.8
20260506164538 16 313 4.8 9.7 0.00 0.00 0.00 75 1018.7
20260506163034 16 274 0.0 6.4 0.00 0.00 0.00 76 1018.8
20260506161534 15 312 1.6 6.4 0.00 0.00 0.00 77 1018.7
20260506160030 16 259 1.6 6.4 0.00 0.00 0.00 77 1018.7
20260506154531 15 323 1.6 8.0 0.00 0.00 0.00 79 1018.8
20260506153023 15 307 1.6 8.0 0.00 0.00 0.00 80 1018.8
20260506151520 15 314 0.0 6.4 0.00 0.00 0.00 80 1018.8
20260506150016 14 296 0.0 6.4 0.00 0.00 0.00 82 1018.7
20260506144513 14 300 0.0 3.2 0.00 0.00 0.00 82 1018.9
20260506143020 13 296 1.6 8.0 0.00 0.00 0.00 82 1018.8
20260506141509 13 286 1.6 8.0 0.00 0.00 0.00 82 1018.7
20260506140005 13 321 3.2 8.0 0.00 0.00 0.00 82 1018.6
20260506134501 13 304 1.6 6.4 0.00 0.00 0.00 82 1018.4
20260506133103 13 310 0.0 4.8 0.00 0.00 0.00 83 1018.2
20260506131558 13 325 1.6 6.4 0.00 0.00 0.00 83 1017.9
20260506130100 13 308 0.0 4.8 0.00 0.00 0.00 83 1017.9
20260506124554 13 322 0.0 0.0 0.00 0.00 0.00 83 1017.8
20260506123052 13 337 0.0 3.2 0.00 0.00 0.00 83 1017.7
20260506121553 13 343 0.0 0.0 0.00 0.00 0.00 82 1017.8
20260506120049 13 9 0.0 4.8 0.00 0.00 0.00 82 1017.6
20260506114550 13 319 0.0 4.8 0.00 0.00 0.00 81 1017.5
20260506113047 13 291 0.0 4.8 0.00 0.00 0.00 80 1017.4
20260506111545 13 315 0.0 4.8 0.00 0.00 0.00 81 1017.3
20260506110045 13 323 0.0 0.0 0.00 0.00 0.00 82 1017.2
20260506104543 14 311 0.0 6.4 0.00 0.00 0.00 81 1017.0
20260506103048 14 317 0.0 4.8 0.00 0.00 0.00 81 1017.0
20260506101542 14 306 1.6 6.4 0.00 0.00 0.00 81 1017.0
20260506100041 14 300 0.0 3.2 0.00 0.00 0.00 81 1017.1
20260506094540 14 306 1.6 4.8 0.00 0.00 0.00 81 1017.1
20260506093038 14 315 0.0 3.2 0.00 0.00 0.00 81 1017.1
20260506091538 14 321 0.0 4.8 0.00 0.00 0.00 81 1017.3
20260506090046 14 341 0.0 6.4 0.00 0.00 0.00 81 1017.2
20260506084543 14 321 1.6 8.0 0.00 0.00 0.00 81 1017.2
20260506083035 14 28 1.6 8.0 0.00 0.00 0.00 81 1017.2
20260506081538 14 337 3.2 9.7 0.00 0.00 0.00 80 1017.1
20260506073028 14 46 1.6 6.4 0.00 0.00 0.00 80 1016.8
20260506071625 14 30 0.0 8.0 0.00 0.00 0.00 80 1016.7
20260506061541 15 342 4.8 9.7 0.00 0.00 0.00 80 1016.4
20260506044520 15 350 3.2 12.9 0.00 0.00 0.00 74 1015.7
20260506043024 15 338 0.0 4.8 0.00 0.00 0.00 72 1015.6
20260506041511 15 296 1.6 4.8 0.00 0.00 0.00 73 1015.3
20260506040009 15 355 0.0 4.8 0.00 0.00 0.00 73 1015.2
20260506034508 15 317 3.2 6.4 0.00 0.00 0.00 73 1015.0
20260506033006 15 324 3.2 6.4 0.00 0.00 0.00 73 1014.8
20260506031505 15 360 1.6 6.4 0.00 0.00 0.00 75 1014.6
20260506030005 15 351 1.6 8.0 0.00 0.00 0.00 73 1014.4
20260506024512 15 15 1.6 6.4 0.00 0.00 0.00 73 1014.3
20260506023004 15 329 3.2 8.0 0.00 0.00 0.00 72 1014.1
20260506021503 15 330 3.2 6.4 0.00 0.00 0.00 73 1014.0
20260506020005 16 12 1.6 9.7 0.00 0.00 0.00 72 1014.0